EDT,Max TemperatureF,Mean TemperatureF,Min TemperatureF,Max Dew PointF,MeanDew PointF,Min DewpointF,Max Humidity, Mean Humidity, Min Humidity, Max Sea Level PressureIn, Mean Sea Level PressureIn, Min Sea Level PressureIn, Max VisibilityMiles, Mean VisibilityMiles, Min VisibilityMiles, Max Wind SpeedMPH, Mean Wind SpeedMPH, Max Gust SpeedMPH,PrecipitationIn, CloudCover, Events, WindDirDegrees
2014-4-1,83,77,71,63,62,61,73,64,54,30.15,30.12,30.08,10,10,10,14,8,19,0.00,1,,92
2014-4-2,82,77,72,62,61,60,68,60,51,30.18,30.13,30.09,10,10,10,15,9,21,0.00,1,,96
2014-4-3,83,78,73,64,63,59,69,60,51,30.14,30.08,30.04,10,10,10,14,9,23,0.00,2,,110
2014-4-4,86,81,75,68,66,63,74,66,58,30.06,30.03,29.99,10,10,10,13,7,19,0.00,1,,118
2014-4-5,86,80,73,68,67,65,74,65,55,30.05,30.02,29.99,10,10,10,10,5,13,0.00,0,,125
2014-4-6,85,80,74,70,68,64,84,71,58,30.04,29.99,29.93,10,10,10,13,8,18,0.00,0,,119
2014-4-7,86,82,77,77,74,70,91,81,70,29.99,29.93,29.86,10,9,7,14,9,21,0.01,1,,137
2014-4-8,88,78,68,77,71,62,93,82,70,29.96,29.89,29.81,10,8,2,24,12,36,0.12,3,Rain,214
2014-4-9,79,74,69,65,58,54,73,59,45,30.16,30.05,29.94,10,10,10,22,14,31,0.00,3,,306
2014-4-10,81,75,68,61,57,54,73,58,42,30.23,30.18,30.13,10,10,10,21,13,26,0.00,2,,53
2014-4-11,82,78,73,68,61,56,79,62,45,30.20,30.15,30.10,10,10,10,14,8,18,0.00,1,,82
2014-4-12,83,78,73,70,67,62,87,71,55,30.15,30.09,30.05,10,10,10,17,11,25,0.00,2,,64
2014-4-13,85,79,73,70,68,66,87,73,58,30.07,30.03,29.98,10,10,10,12,7,17,0.00,1,,76
2014-4-14,87,82,76,74,73,71,94,80,65,29.99,29.95,29.91,10,10,10,12,7,17,0.00,0,,125
2014-4-15,89,84,78,75,74,73,85,75,65,29.95,29.91,29.88,10,10,6,13,7,18,0.00,2,,181
2014-4-16,83,80,76,73,72,70,88,77,65,30.06,29.99,29.93,10,10,10,15,10,20,0.00,5,,15
2014-4-17,87,81,75,75,73,70,94,80,65,30.10,30.04,30.01,10,10,2,17,10,24,0.12,3,Rain,85
2014-4-18,87,83,78,74,72,68,85,73,61,30.05,30.01,29.96,10,10,7,16,10,24,T,1,Rain,130
2014-4-19,86,80,73,76,72,62,91,76,61,30.03,29.96,29.91,10,10,9,17,10,25,0.00,4,,274
2014-4-20,82,77,72,63,61,59,68,60,51,30.06,30.02,29.98,10,10,10,15,10,22,0.00,5,,296
2014-4-21,78,74,69,68,64,61,84,71,58,30.04,29.99,29.93,10,10,10,15,10,20,0.00,2,,351
2014-4-22,83,78,72,68,67,65,90,76,62,29.97,29.92,29.88,10,10,9,13,7,18,0.00,2,,353
2014-4-23,82,77,71,66,64,63,79,67,54,29.99,29.94,29.91,10,10,10,10,6,13,0.00,1,,307
2014-4-24,84,77,69,69,67,65,90,76,62,30.03,29.98,29.94,10,10,10,10,4,14,0.00,1,,96
2014-4-25,86,80,73,72,70,68,87,73,59,30.03,29.98,29.93,10,10,9,14,6,17,0.00,1,,15
2014-4-26,87,81,74,69,67,65,74,63,51,30.02,29.99,29.95,10,10,10,10,5,13,0.00,0,,348
2014-4-27,88,81,74,75,72,67,87,76,65,30.01,29.97,29.93,10,10,9,15,8,20,0.00,0,,99
2014-4-28,88,83,78,76,74,70,85,75,65,29.98,29.94,29.88,10,10,10,15,9,21,0.00,0,,121
2014-4-29,88,83,78,76,74,69,85,75,65,30.00,29.93,29.88,10,10,9,14,8,21,0.00,0,,137
2014-4-30,89,85,80,77,76,72,91,75,59,30.05,30.01,29.96,10,10,8,14,10,21,0.00,1,,129